Regional Weather Roundup
Issued by NWS Sterling, VA

Home | Current Version | Previous Version | Text Only | Print | Product List | Glossary Off
Versions: 1 2 3 4 5 6 7 8 9 10 11 12 13 14 15 16 17 18 19 20 21 22 23 24 25 26 27 28 29 30 31 32 33 34 35 36 37 38 39 40 41 42 43 44 45 46 47 48 49 50

504
ASUS41 KLWX 231910
RWRLWX

REGIONAL WEATHER ROUNDUP
NATIONAL WEATHER SERVICE BALTIMORE MD/WASHINGTON DC
300 PM EDT TUE AUG 23 2016

Note: "FAIR" indicates few or no clouds below 12,000 feet
with no significant weather and/or obstructions to visibility.
 TC=TEMPERATURE CELSIUS

 * =Non NWS site. Station does not report precipitation (e.g. rain,
    snow, etc.), thunder, or fog.

DCZ001-MDZ009-015-VAZ040>042-051-053>054-232000-
WASHINGTON METRO

CITY           SKY/WX    TMP DP  RH WIND       PRES   REMARKS
WASHINGTON NAT MOSUNNY   83  57  41 SE6       30.31F
DULLES         PTSUNNY   83  56  39 SW3       30.31F
ANDREWS AFB    SUNNY     80  59  48 S6        30.31F
FT BELVOIR     SUNNY     82  58  44 S6        30.30F
QUANTICO       MOSUNNY   82  58  43 S5        30.32F
COLLEGE PARK*  SUNNY     79  55  44 SE6       30.30F
LEESBURG*      MOSUNNY   84  61  45 SW7       30.32F
MANASSAS*      SUNNY     82  59  44 SE6       30.31F
GAITHERSBURG*  PTSUNNY   79  57  47 CALM      30.34F

$$

MDZ006>007-011-014-232000-
BALTIMORE METRO

CITY           SKY/WX    TMP DP  RH WIND       PRES   REMARKS
BWI AIRPORT    MOSUNNY   81  57  43 SE5       30.30F
MD SCIENCE CTR   N/A     80  56  43 MISG      30.33
MARTIN STATE   MOSUNNY   81  57  44 SE7       30.32F
ANNAPOLIS      SUNNY     79  57  46 SE12      30.31F
FORT MEADE*    SUNNY     79  57  47 SE5       30.32F

$$

MDZ012-015-019>023-232000-
MARYLAND EASTERN SHORE

CITY           SKY/WX    TMP DP  RH WIND       PRES   REMARKS
OCEAN CITY     SUNNY     78  57  48 E10       30.31F
SALISBURY      SUNNY     80  55  42 E6        30.30F
BAY BRIDGE AP* SUNNY     81  55  41 W8        30.31F
CAMBRIDGE*     SUNNY     79  54  41 NW3       30.31F
EASTON*        MOSUNNY   82  63  51 VRB3      30.35F

$$

MDZ017>025-232000-
SOUTHERN MARYLAND

CITY           SKY/WX    TMP DP  RH WIND       PRES   REMARKS
PATUXENT RIVER MOSUNNY   80  54  40 E5        30.31F
ST INIGOES     SUNNY     82  56  40 NE6       30.31F
LEONARDTOWN*   SUNNY     79  54  41 NE5       30.33F

$$

MDZ003>005-232000-
NORTH CENTRAL MARYLAND

CITY           SKY/WX    TMP DP  RH WIND       PRES   REMARKS
FREDERICK*     SUNNY     82  63  51 SE3       30.33F
HAGERSTOWN APT SUNNY     82  56  40 W9        30.31F

$$

MDZ501>502-232000-
WESTERN MARYLAND

CITY           SKY/WX    TMP DP  RH WIND       PRES   REMARKS
OAKLAND*         N/A     72  55  56 SE8       30.37F
CUMBERLAND*    MOSUNNY   81  57  44 CALM      30.33F

$$

VAZ025>031-232000-
SHENANDOAH VALLEY

CITY           SKY/WX    TMP DP  RH WIND       PRES   REMARKS
WINCHESTER*    PTSUNNY   81  61  50 S7        30.31F
FRONT ROYAL*   MOCLDY    79  63  57 S7        30.30F
LURAY*         MOCLDY    79  61  53 SW3       30.31F
NEW MARKET*    MOCLDY   N/A N/A N/A CALM      30.30F
STAUNTON*      PTSUNNY   78  61  54 S6        30.35F
WAYNESBORO*    MOCLDY    77  60  55 SE8       30.34F

$$

WVZ021-048>050-054>055-232000-
EASTERN WEST VIRGINIA PANHANDLE

CITY           SKY/WX    TMP DP  RH WIND       PRES   REMARKS
MARTINSBURG    PTSUNNY   78  58  49 SE7       30.30F
PETERSBURG*    MOSUNNY   83  60  46 SE5       30.29F

$$

VAZ036>039-050-232000-
CENTRAL FOOTHILLS

CITY           SKY/WX    TMP DP  RH WIND       PRES   REMARKS
CHARLOTTESVILL MOSUNNY   82  63  52 S6        30.31F
CULPEPER*      PTSUNNY   81  65  57 CALM      30.31F
ORANGE*          N/A     81  61  50 CALM      30.33F
GORDONSVILLE*  NOT AVBL
WARRENTON*     PTSUNNY   84  54  36 CALM      30.31F

$$

VAZ055>057-232000-
NORTH AND CENTRAL PIEDMONT

CITY           SKY/WX    TMP DP  RH WIND       PRES   REMARKS
FREDERICKSBRG*   N/A     81  61  50 E5        30.30F
STAFFORD*      MOSUNNY   83  57  41 SE7       30.35F

$$

NCZ024-NYZ072-PAZ021-071-VAZ022-071-232000-
OTHER REGIONAL OBSERVATIONS

CITY           SKY/WX    TMP DP  RH WIND       PRES   REMARKS
NEW YORK CITY  SUNNY     80  51  36 W3        30.30F
PHILADELPHIA   MOSUNNY   81  51  35 SW8       30.29F
PITTSBURGH     MOSUNNY   79  55  43 VRB6      30.29F
ROANOKE        PTSUNNY   80  63  55 SE8       30.34F
RICHMOND       PTSUNNY   82  59  45 E7        30.30F
RALEIGH        MOSUNNY   84  58  40 CALM      30.28F

$$

ANZ530>537-232000-
MARINE OBSERVATIONS

STATION/POSITION TIME  TEMP    WIND        PRES
                       AIR SEA DIR/SP/G
                 (UTC) (F)     (DEG/KT/KT) (MB)
THOMAS PT LIGHT  1900   76 82  180/  5/  6 1027.8F
BALT KEY BRIDGE  1848   76     110/ 10/ 12 1026.2F
COVE POINT       1848   78     210/  2/  3 1027.2F
LEWISETTA        1848   77 81  110/  4/  5 1026.3F
SOLOMONS ISLAND  1848   78 84  160/  2/  3   N/A
PINEY POINT      1848          200/  7/  8   N/A

$$





USA.gov is the U.S. government's official web portal to all federal, state and local government web resources and services.